Starlink 30225

operational
NORAD ID: 57449 Int'l Des: 2023-105 Owner: SPXS Country: US Constellation: starlink
LEOCIRCULAR

关于 Starlink 30225

正在加载描述...

实时位置

正在加载3D地球...

即将过境

高度历史

Altitude vs Time

uPlot chart will show altitude changes over time

两行轨道根数

1 57449U 23105V 25350.32354181 .00000428 00000-0 46778-4 0 9992
2 57449 43.0049 354.3376 0001177 274.7885 85.2823 15.02535905133087
Epoch: Dec 16, 2025 • Age: 14 hours

当前状态

高度 567.7 km
速度 7.58 km/s
星下点 -33.02°S, 165.91°E
发射日期 Jul 24, 2023
运行时间 2.3 years
类型 internet

技术详情

分类 Payload
质量 730.00 kg
干质量 700.00 kg
总质量 730.00 kg
长度 0.30 m
直径 4.10 m
跨度 29.00 m
形状 Box + pan
制造商 SPXS
平台类型 Starlink V2M
阶段状态 In Orbit
所有者/国家 SPXS/US

大型星座

Loading constellations...